Saguache, CO

2:52 PM MST on February 20, 2018 (GMT -0700)
Saguache

Weather History for K04V - November, 2012

Change the Weather History Date:

Tuesday, November 13, 2012

  Actual Average (KALS) Record (KALS)
Temperature  
Mean Temperature 32 °F -  
Max Temperature 48 °F 48 °F 65 °F (2017)
Min Temperature 15 °F 14 °F -12 °F (1940)
Degree Days  
Heating Degree Days 34    
Moisture  
Dew Point 12 °F    
Average Humidity 47    
Maximum Humidity 73    
Minimum Humidity 24    
Precipitation  
Precipitation 0.00 in - - ()
Sea Level Pressure  
Sea Level Pressure 30.32 in    
Wind  
Wind Speed 9 mph (NNW)    
Max Wind Speed 17 mph    
Max Gust Speed 20 mph    
Visibility 10 miles    
Events      
Averages and records for this station are not official NWS values.
T = Trace of Precipitation, MM = Missing Value Source: NWS Daily Summary

Daily Weather History Graph

Daily Weather History Graph

Search for Another Location

Airport or City:

Trip Planner

Search our weather history database for the weather conditions in past years. The results will help you decide how hot, cold, wet, or windy it might be!

Date:

Astronomy

Nov. 13, 2012 Rise Set
Actual Time 6:44 AM MST 4:53 PM MST
Civil Twilight 6:15 AM MST 5:21 PM MST
Nautical Twilight 5:44 AM MST 5:53 PM MST
Astronomical Twilight 5:13 AM MST 6:24 PM MST
Moon 6:25 AM MST (11/13) 4:49 PM MST (11/13)
Length of Visible Light 11h 05m
Length of Day
10h 09m
Waning Crescent, 0% of the Moon is Illuminated
Nov 13
Waning Crescent
Nov 13
New
Nov 20
First Quarter
Nov 28
Full
Dec 6
Last Quarter

Hourly Weather History & Observations

Time (MST) Temp. Windchill Dew Point Humidity Pressure Visibility Wind Dir Wind Speed Gust Speed Precip Events Conditions
12:15 AM 24.8 °F 13.4 °F 10.4 °F 54% 30.36 in 10.0 mi NW 12.7 mph - N/A   Mostly Cloudy
12:35 AM 24.8 °F 14.6 °F 10.4 °F 54% 30.35 in 10.0 mi NNW 10.4 mph 17.3 mph N/A   Scattered Clouds
12:55 AM 23.0 °F 13.1 °F 10.4 °F 59% 30.35 in 10.0 mi NNW 9.2 mph - N/A   Clear
1:15 AM 23.0 °F 13.1 °F 10.4 °F 59% 30.34 in 10.0 mi North 9.2 mph - N/A   Clear
1:35 AM 23.0 °F 11.7 °F 10.4 °F 59% 30.33 in 10.0 mi North 11.5 mph - N/A   Clear
1:55 AM 23.0 °F - 10.4 °F 59% 30.33 in 10.0 mi Calm Calm - N/A   Clear
2:15 AM 21.2 °F 14.9 °F 10.4 °F 63% 30.33 in 10.0 mi NW 4.6 mph - N/A   Clear
2:35 AM 21.2 °F 11.7 °F 10.4 °F 63% 30.32 in 10.0 mi NNW 8.1 mph - N/A   Clear
2:55 AM 21.2 °F 10.9 °F 10.4 °F 63% 30.32 in 10.0 mi NNW 9.2 mph - N/A   Clear
3:15 AM 21.2 °F 11.7 °F 10.4 °F 63% 30.31 in 10.0 mi NNW 8.1 mph - N/A   Clear
3:35 AM 23.0 °F 13.1 °F 10.4 °F 59% 30.31 in 10.0 mi NNW 9.2 mph - N/A   Clear
3:54 AM 21.2 °F 10.1 °F 10.4 °F 63% 30.31 in 10.0 mi NW 10.4 mph - N/A   Clear
4:15 AM 21.2 °F 7.8 °F 10.4 °F 63% 30.31 in 10.0 mi NNW 15.0 mph - N/A   Clear
4:34 AM 21.2 °F 10.1 °F 10.4 °F 63% 30.31 in 10.0 mi NW 10.4 mph - N/A   Clear
4:55 AM 21.2 °F 11.7 °F 10.4 °F 63% 30.32 in 10.0 mi NNW 8.1 mph - N/A   Clear
5:35 AM 19.4 °F 9.5 °F 8.6 °F 63% 30.32 in 10.0 mi NNW 8.1 mph - N/A   Clear
5:55 AM 19.4 °F 7.9 °F 10.4 °F 68% 30.33 in 10.0 mi NNW 10.4 mph - N/A   Clear
6:15 AM 17.6 °F 8.2 °F 8.6 °F 68% 30.33 in 10.0 mi NNW 6.9 mph - N/A   Clear
6:35 AM 17.6 °F 9.3 °F 8.6 °F 68% 30.33 in 10.0 mi North 5.8 mph - N/A   Clear
6:55 AM 15.8 °F 2.7 °F 8.6 °F 73% 30.33 in 10.0 mi NNW 11.5 mph - N/A   Clear
7:15 AM 19.4 °F 8.6 °F 10.4 °F 68% 30.33 in 10.0 mi NW 9.2 mph - N/A   Clear
7:35 AM 21.2 °F 10.9 °F 10.4 °F 63% 30.33 in 10.0 mi NW 9.2 mph - N/A   Clear
7:55 AM 24.8 °F 14.6 °F 10.4 °F 54% 30.33 in 10.0 mi NW 10.4 mph - N/A   Clear
8:15 AM 26.6 °F 20.0 °F 10.4 °F 51% 30.33 in 10.0 mi WNW 5.8 mph - N/A   Clear
8:35 AM 30.2 °F 23.4 °F 12.2 °F 47% 30.33 in 10.0 mi NW 6.9 mph - N/A   Clear
8:55 AM 32.0 °F - 12.2 °F 44% 30.33 in 10.0 mi Calm Calm - N/A   Clear
9:14 AM 33.8 °F 30.8 °F 10.4 °F 38% 30.33 in 10.0 mi NW 3.5 mph - N/A   Clear
9:35 AM 37.4 °F 29.3 °F 10.4 °F 33% 30.32 in 10.0 mi NW 12.7 mph - N/A   Clear
9:55 AM 39.2 °F 32.5 °F 8.6 °F 28% 30.32 in 10.0 mi WNW 10.4 mph - N/A   Clear
10:15 AM 41.0 °F 38.0 °F 6.8 °F 24% 30.32 in 10.0 mi NW 4.6 mph - N/A   Clear
10:35 AM 39.2 °F 37.0 °F 10.4 °F 31% 30.31 in 10.0 mi SSE 3.5 mph - N/A   Clear
10:55 AM 41.0 °F 36.4 °F 10.4 °F 29% 30.31 in 10.0 mi ESE 6.9 mph - N/A   Clear
11:15 AM 41.0 °F 34.7 °F 10.4 °F 29% 30.29 in 10.0 mi SE 10.4 mph - N/A   Clear
11:55 AM 42.8 °F 41.1 °F 12.2 °F 29% 30.29 in 10.0 mi SE 3.5 mph - N/A   Clear
12:15 PM 44.6 °F 43.1 °F 12.2 °F 27% 30.28 in 10.0 mi South 3.5 mph - N/A   Clear
12:34 PM 46.4 °F 42.9 °F 12.2 °F 25% 30.28 in 10.0 mi South 6.9 mph - N/A   Clear
12:55 PM 46.4 °F 43.5 °F 12.2 °F 25% 30.27 in 10.0 mi NNW 5.8 mph - N/A   Clear
1:15 PM 46.4 °F - 12.2 °F 25% 30.26 in 10.0 mi Calm Calm - N/A   Clear
1:34 PM 46.4 °F - 12.2 °F 25% 30.26 in 10.0 mi Calm Calm - N/A   Clear
1:55 PM 46.4 °F 41.9 °F 12.2 °F 25% 30.26 in 10.0 mi North 9.2 mph - N/A   Clear
2:15 PM 46.4 °F 41.5 °F 12.2 °F 25% 30.26 in 10.0 mi NW 10.4 mph - N/A   Clear
2:35 PM 46.4 °F 40.7 °F 12.2 °F 25% 30.26 in 10.0 mi NNW 12.7 mph 16.1 mph N/A   Clear
2:55 PM 48.2 °F - 12.2 °F 24% 30.26 in 10.0 mi WNW 6.9 mph 19.6 mph N/A   Clear
3:15 PM 48.2 °F - 12.2 °F 24% 30.27 in 10.0 mi NW 6.9 mph - N/A   Clear
3:35 PM 46.4 °F 41.9 °F 12.2 °F 25% 30.27 in 10.0 mi NNW 9.2 mph 16.1 mph N/A   Clear
3:55 PM 46.4 °F 42.4 °F 12.2 °F 25% 30.28 in 10.0 mi North 8.1 mph - N/A   Clear
4:15 PM 46.4 °F 42.4 °F 12.2 °F 25% 30.28 in 10.0 mi NNE 8.1 mph - N/A   Clear
4:35 PM 44.6 °F 42.2 °F 12.2 °F 27% 30.29 in 10.0 mi NNE 4.6 mph - N/A   Clear
4:55 PM 37.4 °F 32.1 °F 12.2 °F 36% 30.29 in 10.0 mi North 6.9 mph - N/A   Clear
5:15 PM 37.4 °F 32.1 °F 14.0 °F 38% 30.29 in 10.0 mi North 6.9 mph - N/A   Clear
5:35 PM 35.6 °F - 14.0 °F 41% 30.31 in 10.0 mi Calm Calm - N/A   Clear
5:55 PM 33.8 °F 29.6 °F 14.0 °F 44% 30.31 in 10.0 mi NNW 4.6 mph - N/A   Clear
6:14 PM 33.8 °F 26.4 °F 15.8 °F 48% 30.32 in 10.0 mi North 9.2 mph - N/A   Clear
6:34 PM 35.6 °F 27.5 °F 14.0 °F 41% 30.32 in 10.0 mi North 11.5 mph 16.1 mph N/A   Clear
6:55 PM 33.8 °F 27.7 °F 15.8 °F 48% 30.33 in 10.0 mi North 6.9 mph - N/A   Clear
7:15 PM 33.8 °F 27.7 °F 15.8 °F 48% 30.34 in 10.0 mi North 6.9 mph - N/A   Clear
7:35 PM 33.8 °F 27.0 °F 17.6 °F 52% 30.34 in 10.0 mi NNW 8.1 mph - N/A   Clear
7:55 PM 30.2 °F 22.6 °F 15.8 °F 55% 30.35 in 10.0 mi NW 8.1 mph - N/A   Clear
8:14 PM 30.2 °F 20.2 °F 15.8 °F 55% 30.34 in 10.0 mi NW 12.7 mph - N/A   Clear
8:35 PM 30.2 °F 20.8 °F 15.8 °F 55% 30.35 in 10.0 mi NW 11.5 mph - N/A   Clear
8:54 PM 30.2 °F 22.6 °F 17.6 °F 60% 30.36 in 10.0 mi NW 8.1 mph - N/A   Clear
9:15 PM 26.6 °F 16.8 °F 15.8 °F 64% 30.36 in 10.0 mi NNW 10.4 mph - N/A   Clear
9:35 PM 28.4 °F 18.0 °F 15.8 °F 59% 30.36 in 10.0 mi NNW 12.7 mph - N/A   Clear
9:55 PM 30.2 °F 21.3 °F 15.8 °F 55% 30.35 in 10.0 mi NNW 10.4 mph - N/A   Clear
10:14 PM 28.4 °F 18.5 °F 15.8 °F 59% 30.35 in 10.0 mi NNW 11.5 mph - N/A   Clear
10:34 PM 28.4 °F 16.2 °F 15.8 °F 59% 30.35 in 10.0 mi NNW 17.3 mph - N/A   Clear
10:55 PM 26.6 °F 15.2 °F 14.0 °F 59% 30.35 in 10.0 mi NNW 13.8 mph 18.4 mph N/A   Clear
11:15 PM 26.6 °F 15.7 °F 14.0 °F 59% 30.35 in 10.0 mi NNW 12.7 mph - N/A   Clear
11:35 PM 26.6 °F 13.8 °F 14.0 °F 59% 30.35 in 10.0 mi NW 17.3 mph - N/A   Clear
11:55 PM 26.6 °F 17.5 °F 14.0 °F 59% 30.35 in 10.0 mi NNW 9.2 mph - N/A   Clear